| time (UTC) | temp C | wind direction | speed KPH | gust KPH | rain 1hr cm | rain 24hr cm | rain mn cm | humidity % | barometer mb |
| 20260506042049 | 15 | 106 | 6.4 | 20.9 | 0.00 | 0.00 | 0.00 | 61 | 1012.1 |
| 20260506041547 | 15 | 197 | 6.4 | 22.5 | 0.00 | 0.00 | 0.00 | 61 | 1012.1 |
| 20260506041048 | 15 | 137 | 6.4 | 24.1 | 0.00 | 0.00 | 0.00 | 61 | 1012.1 |
| 20260506040546 | 15 | 179 | 11.3 | 24.1 | 0.00 | 0.00 | 0.00 | 61 | 1012.1 |
| 20260506040045 | 15 | 199 | 4.8 | 20.9 | 0.00 | 0.00 | 0.00 | 61 | 1012.0 |
| 20260506035545 | 15 | 148 | 8.0 | 22.5 | 0.00 | 0.00 | 0.00 | 61 | 1012.0 |
| 20260506035045 | 15 | 146 | 9.7 | 22.5 | 0.00 | 0.00 | 0.00 | 61 | 1012.1 |
| 20260506034645 | 15 | 143 | 6.4 | 17.7 | 0.00 | 0.00 | 0.00 | 61 | 1012.0 |
| 20260506034044 | 15 | 210 | 8.0 | 17.7 | 0.00 | 0.00 | 0.00 | 61 | 1012.3 |
| 20260506033543 | 15 | 134 | 8.0 | 17.7 | 0.00 | 0.00 | 0.00 | 60 | 1012.3 |
| 20260506033043 | 15 | 188 | 8.0 | 16.1 | 0.00 | 0.00 | 0.00 | 60 | 1012.3 |
| 20260506032546 | 15 | 188 | 4.8 | 19.3 | 0.00 | 0.00 | 0.00 | 60 | 1012.4 |
| 20260506032046 | 15 | 159 | 9.7 | 19.3 | 0.00 | 0.00 | 0.00 | 60 | 1012.1 |
| 20260506031543 | 15 | 191 | 6.4 | 17.7 | 0.00 | 0.00 | 0.00 | 60 | 1012.3 |
| 20260506031041 | 15 | 211 | 3.2 | 12.9 | 0.00 | 0.00 | 0.00 | 59 | 1012.3 |
| 20260506030542 | 15 | 148 | 4.8 | 12.9 | 0.00 | 0.00 | 0.00 | 59 | 1012.3 |
| 20260506030043 | 15 | 213 | 6.4 | 17.7 | 0.00 | 0.00 | 0.00 | 59 | 1012.3 |
| 20260506025541 | 15 | 173 | 8.0 | 17.7 | 0.00 | 0.00 | 0.00 | 58 | 1012.3 |
| 20260506025041 | 16 | 163 | 8.0 | 22.5 | 0.00 | 0.00 | 0.00 | 58 | 1012.3 |
| 20260506024557 | 16 | 109 | 8.0 | 22.5 | 0.00 | 0.00 | 0.00 | 58 | 1012.3 |
| 20260506024041 | 16 | 119 | 3.2 | 19.3 | 0.00 | 0.00 | 0.00 | 58 | 1012.3 |
| 20260506023541 | 16 | 151 | 3.2 | 20.9 | 0.00 | 0.00 | 0.00 | 57 | 1012.5 |
| 20260506023041 | 16 | 146 | 3.2 | 20.9 | 0.00 | 0.00 | 0.00 | 57 | 1012.5 |
| 20260506022540 | 16 | 143 | 8.0 | 20.9 | 0.00 | 0.00 | 0.00 | 57 | 1012.5 |
| 20260506022040 | 16 | 162 | 4.8 | 19.3 | 0.00 | 0.00 | 0.00 | 57 | 1012.4 |
| 20260506021540 | 16 | 131 | 8.0 | 20.9 | 0.00 | 0.00 | 0.00 | 57 | 1012.5 |
| 20260506021141 | 16 | 173 | 11.3 | 20.9 | 0.00 | 0.00 | 0.00 | 57 | 1012.3 |
| 20260506020538 | 16 | 155 | 8.0 | 19.3 | 0.00 | 0.00 | 0.00 | 57 | 1012.4 |
| 20260506020039 | 16 | 194 | 4.8 | 22.5 | 0.00 | 0.00 | 0.00 | 57 | 1012.5 |
| 20260506015540 | 16 | 192 | 8.0 | 22.5 | 0.00 | 0.00 | 0.00 | 57 | 1012.4 |
| 20260506015039 | 16 | 144 | 4.8 | 17.7 | 0.00 | 0.00 | 0.00 | 57 | 1012.3 |
| 20260506014538 | 16 | 135 | 6.4 | 19.3 | 0.00 | 0.00 | 0.00 | 57 | 1012.4 |
| 20260506014043 | 16 | 149 | 8.0 | 19.3 | 0.00 | 0.00 | 0.00 | 57 | 1012.4 |
| 20260506013542 | 16 | 198 | 6.4 | 19.3 | 0.00 | 0.00 | 0.00 | 57 | 1012.4 |
| 20260506013058 | 16 | 190 | 4.8 | 17.7 | 0.00 | 0.00 | 0.00 | 56 | 1012.3 |
| 20260506012538 | 16 | 175 | 4.8 | 17.7 | 0.00 | 0.00 | 0.00 | 56 | 1012.6 |
| 20260506012038 | 16 | 103 | 4.8 | 12.9 | 0.00 | 0.00 | 0.00 | 56 | 1012.7 |
| 20260506011541 | 16 | 132 | 6.4 | 17.7 | 0.00 | 0.00 | 0.00 | 56 | 1012.6 |
| 20260506011037 | 16 | 171 | 6.4 | 17.7 | 0.00 | 0.00 | 0.00 | 56 | 1012.4 |
| 20260506010536 | 16 | 176 | 4.8 | 14.5 | 0.00 | 0.00 | 0.00 | 55 | 1012.5 |
| 20260506010037 | 16 | 122 | 6.4 | 14.5 | 0.00 | 0.00 | 0.00 | 55 | 1012.4 |
| 20260506005536 | 16 | 199 | 4.8 | 12.9 | 0.00 | 0.00 | 0.00 | 55 | 1012.4 |
| 20260506005035 | 16 | 155 | 6.4 | 12.9 | 0.00 | 0.00 | 0.00 | 55 | 1012.5 |
| 20260506004536 | 16 | 147 | 4.8 | 12.9 | 0.00 | 0.00 | 0.00 | 54 | 1012.4 |
| 20260506004035 | 16 | 146 | 6.4 | 12.9 | 0.00 | 0.00 | 0.00 | 54 | 1012.4 |
| 20260506003535 | 16 | 177 | 3.2 | 14.5 | 0.00 | 0.00 | 0.00 | 53 | 1012.4 |
| 20260506003036 | 16 | 197 | 6.4 | 14.5 | 0.00 | 0.00 | 0.00 | 53 | 1012.3 |
| 20260506002534 | 16 | 178 | 6.4 | 14.5 | 0.00 | 0.00 | 0.00 | 53 | 1012.4 |
| 20260506002037 | 16 | 201 | 4.8 | 16.1 | 0.00 | 0.00 | 0.00 | 52 | 1012.3 |
| 20260506001538 | 16 | 205 | 6.4 | 16.1 | 0.00 | 0.00 | 0.00 | 52 | 1012.1 |
| 20260506001034 | 16 | 116 | 6.4 | 17.7 | 0.00 | 0.00 | 0.00 | 51 | 1012.2 |
| 20260506000534 | 16 | 145 | 9.7 | 22.5 | 0.00 | 0.00 | 0.00 | 51 | 1012.2 |
| 20260506000035 | 16 | 179 | 12.9 | 22.5 | 0.00 | 0.00 | 0.00 | 50 | 1011.9 |
| 20260505235533 | 17 | 192 | 8.0 | 17.7 | 0.00 | 0.00 | 0.00 | 50 | 1012.0 |
| 20260505235033 | 17 | 148 | 6.4 | 24.1 | 0.00 | 0.00 | 0.00 | 49 | 1012.4 |
| 20260505234536 | 17 | 161 | 11.3 | 24.1 | 0.00 | 0.00 | 0.00 | 48 | 1012.4 |
| 20260505234033 | 17 | 141 | 3.2 | 17.7 | 0.00 | 0.00 | 0.00 | 48 | 1012.4 |
| 20260505233535 | 17 | 213 | 6.4 | 20.9 | 0.00 | 0.00 | 0.00 | 48 | 1012.4 |
| 20260505233032 | 17 | 212 | 11.3 | 22.5 | 0.00 | 0.00 | 0.00 | 47 | 1012.2 |
| 20260505232532 | 17 | 122 | 8.0 | 25.7 | 0.00 | 0.00 | 0.00 | 46 | 1012.2 |
| 20260505232032 | 17 | 155 | 12.9 | 29.0 | 0.00 | 0.00 | 0.00 | 46 | 1012.1 |
| 20260505231536 | 17 | 172 | 4.8 | 29.0 | 0.00 | 0.00 | 0.00 | 46 | 1012.2 |
| 20260505231033 | 17 | 144 | 8.0 | 37.0 | 0.00 | 0.00 | 0.00 | 47 | 1012.2 |
| 20260505230531 | 17 | 156 | 12.9 | 37.0 | 0.00 | 0.00 | 0.00 | 45 | 1012.1 |
| 20260505230048 | 17 | 262 | 8.0 | 29.0 | 0.00 | 0.00 | 0.00 | 46 | 1012.1 |
| 20260505225531 | 17 | 134 | 6.4 | 22.5 | 0.00 | 0.00 | 0.00 | 46 | 1012.2 |
| 20260505225031 | 17 | 205 | 4.8 | 27.4 | 0.00 | 0.00 | 0.00 | 47 | 1012.2 |
| 20260505224530 | 18 | 238 | 8.0 | 27.4 | 0.00 | 0.00 | 0.00 | 45 | 1012.0 |
| 20260505224030 | 18 | 165 | 12.9 | 25.7 | 0.00 | 0.00 | 0.00 | 45 | 1012.0 |
| 20260505223530 | 18 | 149 | 8.0 | 27.4 | 0.00 | 0.00 | 0.00 | 46 | 1011.9 |
| 20260505223029 | 18 | 175 | 16.1 | 27.4 | 0.00 | 0.00 | 0.00 | 45 | 1011.7 |
| 20260505222531 | 18 | 200 | 12.9 | 27.4 | 0.00 | 0.00 | 0.00 | 45 | 1011.7 |
| 20260505222029 | 18 | 155 | 8.0 | 19.3 | 0.00 | 0.00 | 0.00 | 45 | 1011.8 |
| 20260505221534 | 18 | 110 | 4.8 | 17.7 | 0.00 | 0.00 | 0.00 | 46 | 1011.9 |
| 20260505221028 | 18 | 139 | 8.0 | 24.1 | 0.00 | 0.00 | 0.00 | 45 | 1012.0 |
| 20260505220529 | 18 | 155 | 9.7 | 27.4 | 0.00 | 0.00 | 0.00 | 45 | 1011.9 |
| 20260505220030 | 18 | 229 | 9.7 | 25.7 | 0.00 | 0.00 | 0.00 | 44 | 1011.8 |
| 20260505215528 | 18 | 184 | 12.9 | 25.7 | 0.00 | 0.00 | 0.00 | 43 | 1011.5 |
| 20260505215027 | 18 | 150 | 9.7 | 22.5 | 0.00 | 0.00 | 0.00 | 43 | 1011.7 |
| 20260505214526 | 18 | 296 | 6.4 | 22.5 | 0.00 | 0.00 | 0.00 | 43 | 1011.8 |
| 20260505214026 | 18 | 221 | 1.6 | 22.5 | 0.00 | 0.00 | 0.00 | 44 | 1011.9 |
| 20260505213525 | 18 | 193 | 6.4 | 32.2 | 0.00 | 0.00 | 0.00 | 43 | 1012.0 |
| 20260505213028 | 18 | 154 | 14.5 | 32.2 | 0.00 | 0.00 | 0.00 | 42 | 1012.0 |
| 20260505212528 | 18 | 136 | 1.6 | 25.7 | 0.00 | 0.00 | 0.00 | 44 | 1011.9 |
| 20260505212025 | 18 | 206 | 8.0 | 25.7 | 0.00 | 0.00 | 0.00 | 42 | 1012.0 |
| 20260505211525 | 18 | 186 | 9.7 | 24.1 | 0.00 | 0.00 | 0.00 | 42 | 1012.0 |
| 20260505211023 | 18 | 150 | 8.0 | 40.2 | 0.00 | 0.00 | 0.00 | 43 | 1012.0 |
| 20260505210523 | 19 | 133 | 16.1 | 40.2 | 0.00 | 0.00 | 0.00 | 42 | 1012.3 |
| 20260505210023 | 19 | 183 | 11.3 | 32.2 | 0.00 | 0.00 | 0.00 | 42 | 1012.2 |
| 20260505205523 | 19 | 202 | 9.7 | 20.9 | 0.00 | 0.00 | 0.00 | 42 | 1012.2 |
| 20260505205023 | 19 | 129 | 6.4 | 27.4 | 0.00 | 0.00 | 0.00 | 41 | 1012.3 |
| 20260505204523 | 19 | 165 | 9.7 | 29.0 | 0.00 | 0.00 | 0.00 | 41 | 1012.1 |
| 20260505204025 | 19 | 213 | 11.3 | 27.4 | 0.00 | 0.00 | 0.00 | 41 | 1012.0 |
| 20260505203521 | 19 | 193 | 12.9 | 32.2 | 0.00 | 0.00 | 0.00 | 41 | 1012.2 |
| 20260505203027 | 20 | 177 | 17.7 | 32.2 | 0.00 | 0.00 | 0.00 | 40 | 1012.4 |
| 20260505202520 | 20 | 144 | 17.7 | 27.4 | 0.00 | 0.00 | 0.00 | 39 | 1012.5 |
| 20260505202020 | 20 | 171 | 9.7 | 27.4 | 0.00 | 0.00 | 0.00 | 39 | 1012.7 |
| 20260505201520 | 20 | 201 | 6.4 | 25.7 | 0.00 | 0.00 | 0.00 | 42 | 1012.4 |
| 20260505201019 | 20 | 188 | 11.3 | 25.7 | 0.00 | 0.00 | 0.00 | 41 | 1012.3 |
| 20260505200521 | 20 | 214 | 8.0 | 20.9 | 0.00 | 0.00 | 0.00 | 40 | 1012.3 |
| 20260505200030 | 20 | 167 | 8.0 | 22.5 | 0.00 | 0.00 | 0.00 | 41 | 1012.4 |
| 20260505195518 | 20 | 269 | 9.7 | 29.0 | 0.00 | 0.00 | 0.00 | 41 | 1012.7 |
| 20260505195017 | 20 | 198 | 9.7 | 22.5 | 0.00 | 0.00 | 0.00 | 42 | 1012.7 |
| 20260505194516 | 20 | 188 | 6.4 | 17.7 | 0.00 | 0.00 | 0.00 | 43 | 1012.7 |
| 20260505194016 | 20 | 155 | 6.4 | 19.3 | 0.00 | 0.00 | 0.00 | 42 | 1012.8 |
| 20260505193515 | 20 | 140 | 8.0 | 17.7 | 0.00 | 0.00 | 0.00 | 42 | 1012.7 |
| 20260505193015 | 20 | 211 | 9.7 | 22.5 | 0.00 | 0.00 | 0.00 | 42 | 1012.6 |
| 20260505192517 | 19 | 186 | 8.0 | 33.8 | 0.00 | 0.00 | 0.00 | 42 | 1012.6 |
| 20260505192014 | 19 | 115 | 14.5 | 33.8 | 0.00 | 0.00 | 0.00 | 42 | 1012.8 |
| 20260505191514 | 19 | 144 | 11.3 | 30.6 | 0.00 | 0.00 | 0.00 | 42 | 1012.9 |
| 20260505191012 | 19 | 160 | 12.9 | 25.7 | 0.00 | 0.00 | 0.00 | 42 | 1012.9 |
| 20260505190515 | 20 | 161 | 16.1 | 25.7 | 0.00 | 0.00 | 0.00 | 41 | 1012.8 |
| 20260505190014 | 20 | 156 | 8.0 | 22.5 | 0.00 | 0.00 | 0.00 | 42 | 1013.0 |
| 20260505185515 | 20 | 146 | 12.9 | 24.1 | 0.00 | 0.00 | 0.00 | 40 | 1013.0 |
| 20260505185011 | 20 | 124 | 9.7 | 32.2 | 0.00 | 0.00 | 0.00 | 42 | 1013.1 |
| 20260505184514 | 20 | 171 | 16.1 | 29.0 | 0.00 | 0.00 | 0.00 | 40 | 1013.4 |
| 20260505184011 | 20 | 188 | 9.7 | 19.3 | 0.00 | 0.00 | 0.00 | 39 | 1013.2 |
| 20260505183510 | 20 | 188 | 6.4 | 19.3 | 0.00 | 0.00 | 0.00 | 39 | 1013.2 |
| 20260505183009 | 20 | 148 | 6.4 | 30.6 | 0.00 | 0.00 | 0.00 | 40 | 1013.1 |
| 20260505182510 | 20 | 147 | 16.1 | 30.6 | 0.00 | 0.00 | 0.00 | 37 | 1013.3 |
| 20260505182009 | 20 | 223 | 9.7 | 30.6 | 0.00 | 0.00 | 0.00 | 37 | 1013.5 |
| 20260505181509 | 20 | 158 | 8.0 | 29.0 | 0.00 | 0.00 | 0.00 | 39 | 1013.5 |
| 20260505181008 | 20 | 122 | 4.8 | 22.5 | 0.00 | 0.00 | 0.00 | 39 | 1013.7 |
| 20260505180510 | 20 | 145 | 6.4 | 22.5 | 0.00 | 0.00 | 0.00 | 40 | 1013.5 |
| 20260505180008 | 20 | 148 | 11.3 | 24.1 | 0.00 | 0.00 | 0.00 | 39 | 1013.7 |
| 20260505175507 | 20 | 135 | 11.3 | 24.1 | 0.00 | 0.00 | 0.00 | 39 | 1013.8 |
| 20260505175007 | 20 | 143 | 12.9 | 27.4 | 0.00 | 0.00 | 0.00 | 39 | 1013.7 |
| 20260505174511 | 19 | 132 | 9.7 | 29.0 | 0.00 | 0.00 | 0.00 | 41 | 1013.9 |
| 20260505174007 | 19 | 130 | 12.9 | 29.0 | 0.00 | 0.00 | 0.00 | 41 | 1013.8 |
| 20260505173509 | 18 | 125 | 8.0 | 24.1 | 0.00 | 0.00 | 0.00 | 43 | 1013.7 |
| 20260505173018 | 19 | 139 | 8.0 | 24.1 | 0.00 | 0.00 | 0.00 | 42 | 1013.8 |
| 20260505172507 | 19 | 110 | 6.4 | 20.9 | 0.00 | 0.00 | 0.00 | 44 | 1013.7 |
| 20260505172006 | 19 | 222 | 6.4 | 19.3 | 0.00 | 0.00 | 0.00 | 45 | 1013.7 |
| 20260505171506 | 18 | 123 | 9.7 | 22.5 | 0.00 | 0.00 | 0.00 | 45 | 1013.6 |
| 20260505171010 | 18 | 134 | 11.3 | 22.5 | 0.00 | 0.00 | 0.00 | 46 | 1013.7 |
| 20260505170504 | 18 | 160 | 9.7 | 24.1 | 0.00 | 0.00 | 0.00 | 46 | 1013.8 |
| 20260505170006 | 18 | 135 | 12.9 | 22.5 | 0.00 | 0.00 | 0.00 | 47 | 1013.9 |
| 20260505165505 | 18 | 156 | 11.3 | 24.1 | 0.00 | 0.00 | 0.00 | 47 | 1013.7 |
| 20260505165005 | 18 | 94 | 12.9 | 24.1 | 0.00 | 0.00 | 0.00 | 45 | 1014.0 |
| 20260505164510 | 18 | 123 | 9.7 | 19.3 | 0.00 | 0.00 | 0.00 | 48 | 1014.0 |
| 20260505164005 | 18 | 157 | 8.0 | 16.1 | 0.00 | 0.00 | 0.00 | 48 | 1014.1 |
| 20260505163504 | 18 | 152 | 6.4 | 16.1 | 0.00 | 0.00 | 0.00 | 48 | 1014.2 |
| 20260505163011 | 18 | 161 | 6.4 | 16.1 | 0.00 | 0.00 | 0.00 | 50 | 1014.4 |
| 20260505162504 | 18 | 136 | 6.4 | 20.9 | 0.00 | 0.00 | 0.00 | 50 | 1014.5 |
| 20260505162003 | 18 | 131 | 11.3 | 20.9 | 0.00 | 0.00 | 0.00 | 50 | 1014.7 |
| 20260505161505 | 18 | 243 | 6.4 | 14.5 | 0.00 | 0.00 | 0.00 | 50 | 1014.6 |
| 20260505161002 | 18 | 152 | 9.7 | 16.1 | 0.00 | 0.00 | 0.00 | 49 | 1014.6 |
| 20260505160503 | 18 | 172 | 9.7 | 16.1 | 0.00 | 0.00 | 0.00 | 50 | 1014.7 |
| 20260505153117 | 20 | 108 | 3.2 | 12.9 | 0.00 | 0.00 | 0.00 | 45 | 1014.7 |
| 20260505152601 | 19 | 177 | 6.4 | 12.9 | 0.00 | 0.00 | 0.00 | 44 | 1014.7 |
| 20260505152101 | 20 | 143 | 3.2 | 9.7 | 0.00 | 0.00 | 0.00 | 44 | 1014.7 |
| 20260505151605 | 20 | 137 | 4.8 | 9.7 | 0.00 | 0.00 | 0.00 | 43 | 1014.8 |
| 20260505151059 | 20 | 147 | 6.4 | 12.9 | 0.00 | 0.00 | 0.00 | 43 | 1014.8 |
| 20260505150600 | 21 | 139 | 4.8 | 9.7 | 0.00 | 0.00 | 0.00 | 37 | 1014.7 |
| 20260505140551 | 18 | 198 | 3.2 | 11.3 | 0.00 | 0.00 | 0.00 | 44 | 1014.7 |
| 20260505125040 | 15 | 107 | 0.0 | 1.6 | 0.00 | 0.00 | 0.00 | 61 | 1014.7 |
| 20260505124538 | 14 | 107 | 0.0 | 1.6 | 0.00 | 0.00 | 0.00 | 64 | 1014.7 |
| 20260505124034 | 13 | 107 | 0.0 | 1.6 | 0.00 | 0.00 | 0.00 | 65 | 1014.7 |
| 20260505123535 | 13 | 107 | 0.0 | 1.6 | 0.00 | 0.00 | 0.00 | 64 | 1014.7 |
| 20260505123034 | 12 | 107 | 0.0 | 1.6 | 0.00 | 0.00 | 0.00 | 66 | 1014.8 |
| 20260505122537 | 12 | 107 | 0.0 | 0.0 | 0.00 | 0.00 | 0.00 | 65 | 1014.9 |
| 20260505122037 | 12 | 107 | 0.0 | 0.0 | 0.00 | 0.00 | 0.00 | 68 | 1014.9 |
| 20260505121537 | 11 | 107 | 0.0 | 0.0 | 0.00 | 0.00 | 0.00 | 70 | 1014.8 |
| 20260505121033 | 11 | 107 | 0.0 | 0.0 | 0.00 | 0.00 | 0.00 | 73 | 1014.9 |
| 20260505120531 | 10 | 107 | 0.0 | 0.0 | 0.00 | 0.00 | 0.00 | 75 | 1014.8 |
| 20260505120032 | 9 | 107 | 0.0 | 0.0 | 0.00 | 0.00 | 0.00 | 79 | 1014.7 |
| 20260505115530 | 8 | 107 | 0.0 | 1.6 | 0.00 | 0.00 | 0.00 | 81 | 1014.6 |
| 20260505115033 | 7 | 107 | 0.0 | 1.6 | 0.00 | 0.00 | 0.00 | 83 | 1014.4 |
| 20260505114537 | 7 | 107 | 0.0 | 1.6 | 0.00 | 0.00 | 0.00 | 84 | 1014.5 |
| 20260505114030 | 7 | 107 | 0.0 | 1.6 | 0.00 | 0.00 | 0.00 | 86 | 1014.4 |
| 20260505113529 | 6 | 107 | 0.0 | 1.6 | 0.00 | 0.00 | 0.00 | 86 | 1014.5 |
| 20260505113028 | 6 | 107 | 0.0 | 1.6 | 0.00 | 0.00 | 0.00 | 86 | 1014.4 |
| 20260505112528 | 6 | 107 | 0.0 | 1.6 | 0.00 | 0.00 | 0.00 | 86 | 1014.4 |
| 20260505112028 | 6 | 107 | 0.0 | 1.6 | 0.00 | 0.00 | 0.00 | 87 | 1014.3 |
| 20260505111534 | 6 | 105 | 0.0 | 0.0 | 0.00 | 0.00 | 0.00 | 86 | 1014.3 |
| 20260505111027 | 6 | 105 | 0.0 | 0.0 | 0.00 | 0.00 | 0.00 | 86 | 1014.4 |
| 20260505110529 | 6 | 105 | 0.0 | 0.0 | 0.00 | 0.00 | 0.00 | 85 | 1014.3 |
| 20260505102019 | 7 | 105 | 0.0 | 1.6 | 0.00 | 0.00 | 0.00 | 81 | 1014.0 |
| 20260505101518 | 7 | 105 | 0.0 | 1.6 | 0.00 | 0.00 | 0.00 | 80 | 1014.0 |
| 20260505101015 | 8 | 105 | 0.0 | 1.6 | 0.00 | 0.00 | 0.00 | 78 | 1014.0 |
| 20260505100514 | 8 | 105 | 0.0 | 1.6 | 0.00 | 0.00 | 0.00 | 76 | 1014.0 |
| 20260505100014 | 8 | 105 | 0.0 | 3.2 | 0.00 | 0.00 | 0.00 | 75 | 1014.0 |
| 20260505095515 | 8 | 105 | 0.0 | 3.2 | 0.00 | 0.00 | 0.00 | 76 | 1014.0 |
| 20260505095012 | 8 | 131 | 1.6 | 3.2 | 0.00 | 0.00 | 0.00 | 75 | 1014.1 |
| 20260505094511 | 9 | 99 | 0.0 | 3.2 | 0.00 | 0.00 | 0.00 | 74 | 1014.0 |
| 20260505094014 | 9 | 113 | 0.0 | 3.2 | 0.00 | 0.00 | 0.00 | 74 | 1013.9 |
| 20260505093509 | 9 | 115 | 0.0 | 3.2 | 0.00 | 0.00 | 0.00 | 74 | 1013.9 |
| 20260505093008 | 10 | 122 | 0.0 | 3.2 | 0.00 | 0.00 | 0.00 | 72 | 1014.0 |
| 20260505092509 | 10 | 109 | 0.0 | 4.8 | 0.00 | 0.00 | 0.00 | 71 | 1014.0 |
| 20260505092008 | 10 | 120 | 1.6 | 4.8 | 0.00 | 0.00 | 0.00 | 72 | 1014.0 |
| 20260505091508 | 9 | 123 | 0.0 | 3.2 | 0.00 | 0.00 | 0.00 | 72 | 1013.9 |
| 20260505091006 | 10 | 146 | 0.0 | 6.4 | 0.00 | 0.00 | 0.00 | 70 | 1013.9 |
| 20260505090505 | 10 | 221 | 1.6 | 6.4 | 0.00 | 0.00 | 0.00 | 69 | 1013.9 |
| 20260505090003 | 11 | 209 | 1.6 | 8.0 | 0.00 | 0.00 | 0.00 | 66 | 1013.9 |
| 20260505085502 | 11 | 237 | 1.6 | 9.7 | 0.00 | 0.00 | 0.00 | 63 | 1013.8 |
| 20260505085105 | 12 | 271 | 1.6 | 9.7 | 0.00 | 0.00 | 0.00 | 62 | 1013.7 |
| 20260505084600 | 12 | 250 | 0.0 | 12.9 | 0.00 | 0.00 | 0.00 | 61 | 1013.6 |
| 20260505084102 | 12 | 264 | 4.8 | 12.9 | 0.00 | 0.00 | 0.00 | 60 | 1013.7 |
| 20260505083559 | 12 | 210 | 3.2 | 12.9 | 0.00 | 0.00 | 0.00 | 60 | 1013.7 |
| 20260505083100 | 12 | 254 | 3.2 | 14.5 | 0.00 | 0.00 | 0.00 | 60 | 1013.7 |
| 20260505082559 | 12 | 248 | 3.2 | 14.5 | 0.00 | 0.00 | 0.00 | 60 | 1013.7 |
| 20260505082058 | 12 | 236 | 3.2 | 14.5 | 0.00 | 0.00 | 0.00 | 59 | 1013.6 |
| 20260505081603 | 12 | 266 | 3.2 | 9.7 | 0.00 | 0.00 | 0.00 | 60 | 1013.6 |
| 20260505081058 | 12 | 235 | 1.6 | 9.7 | 0.00 | 0.00 | 0.00 | 60 | 1013.5 |
| 20260505080556 | 12 | 133 | 3.2 | 11.3 | 0.00 | 0.00 | 0.00 | 61 | 1013.6 |
| 20260505080058 | 12 | 210 | 1.6 | 11.3 | 0.00 | 0.00 | 0.00 | 61 | 1013.6 |
| 20260505075600 | 12 | 266 | 1.6 | 6.4 | 0.00 | 0.00 | 0.00 | 62 | 1013.6 |
| 20260505075056 | 12 | 303 | 0.0 | 8.0 | 0.00 | 0.00 | 0.00 | 62 | 1013.6 |
| 20260505074610 | 12 | 229 | 1.6 | 8.0 | 0.00 | 0.00 | 0.00 | 61 | 1013.5 |
| 20260505074055 | 12 | 221 | 0.0 | 4.8 | 0.00 | 0.00 | 0.00 | 61 | 1013.5 |
| 20260505073555 | 12 | 274 | 1.6 | 6.4 | 0.00 | 0.00 | 0.00 | 61 | 1013.3 |
| 20260505073055 | 12 | 238 | 1.6 | 8.0 | 0.00 | 0.00 | 0.00 | 60 | 1013.3 |
| 20260505072552 | 12 | 113 | 1.6 | 11.3 | 0.00 | 0.00 | 0.00 | 60 | 1013.3 |
| 20260505072052 | 13 | 217 | 4.8 | 11.3 | 0.00 | 0.00 | 0.00 | 59 | 1013.2 |
| 20260505071551 | 13 | 237 | 3.2 | 9.7 | 0.00 | 0.00 | 0.00 | 59 | 1013.2 |
| 20260505071051 | 13 | 231 | 3.2 | 9.7 | 0.00 | 0.00 | 0.00 | 59 | 1013.3 |
| 20260505070550 | 13 | 248 | 4.8 | 12.9 | 0.00 | 0.00 | 0.00 | 59 | 1013.3 |
| 20260505070049 | 13 | 203 | 4.8 | 14.5 | 0.00 | 0.00 | 0.00 | 59 | 1013.5 |
| 20260505065548 | 13 | 216 | 4.8 | 14.5 | 0.00 | 0.00 | 0.00 | 59 | 1013.4 |
| 20260505065048 | 13 | 207 | 4.8 | 11.3 | 0.00 | 0.00 | 0.00 | 59 | 1013.4 |
| 20260505064546 | 13 | 212 | 4.8 | 14.5 | 0.00 | 0.00 | 0.00 | 58 | 1013.5 |
| 20260505064045 | 13 | 207 | 8.0 | 14.5 | 0.00 | 0.00 | 0.00 | 58 | 1013.5 |
| 20260505063544 | 13 | 205 | 8.0 | 14.5 | 0.00 | 0.00 | 0.00 | 57 | 1013.5 |
| 20260505063044 | 13 | 176 | 6.4 | 12.9 | 0.00 | 0.00 | 0.00 | 57 | 1013.6 |
| 20260505062543 | 13 | 226 | 4.8 | 12.9 | 0.00 | 0.00 | 0.00 | 57 | 1013.7 |
| 20260505062042 | 13 | 141 | 3.2 | 9.7 | 0.00 | 0.00 | 0.00 | 57 | 1013.6 |
| 20260505061606 | 13 | 195 | 3.2 | 12.9 | 0.00 | 0.00 | 0.00 | 57 | 1013.7 |
| 20260505061040 | 13 | 212 | 3.2 | 17.7 | 0.00 | 0.00 | 0.00 | 56 | 1013.7 |
| 20260505060541 | 13 | 205 | 4.8 | 17.7 | 0.00 | 0.00 | 0.00 | 56 | 1013.6 |
| 20260505060044 | 13 | 231 | 1.6 | 19.3 | 0.00 | 0.00 | 0.00 | 56 | 1013.8 |
| 20260505055538 | 14 | 226 | 1.6 | 19.3 | 0.00 | 0.00 | 0.00 | 55 | 1013.7 |
| 20260505055040 | 14 | 275 | 1.6 | 17.7 | 0.00 | 0.00 | 0.00 | 55 | 1013.8 |
| 20260505054541 | 14 | 96 | 6.4 | 17.7 | 0.00 | 0.00 | 0.00 | 55 | 1013.7 |
| 20260505054039 | 14 | 182 | 8.0 | 17.7 | 0.00 | 0.00 | 0.00 | 55 | 1013.9 |
| 20260505053535 | 14 | 231 | 3.2 | 12.9 | 0.00 | 0.00 | 0.00 | 55 | 1013.8 |
| 20260505053034 | 14 | 248 | 0.0 | 12.9 | 0.00 | 0.00 | 0.00 | 55 | 1013.8 |
| 20260505052535 | 14 | 234 | 3.2 | 14.5 | 0.00 | 0.00 | 0.00 | 54 | 1013.8 |
| 20260505052035 | 14 | 204 | 3.2 | 19.3 | 0.00 | 0.00 | 0.00 | 54 | 1013.9 |
| 20260505051535 | 14 | 145 | 6.4 | 19.3 | 0.00 | 0.00 | 0.00 | 54 | 1013.9 |
| 20260505051034 | 14 | 209 | 8.0 | 19.3 | 0.00 | 0.00 | 0.00 | 55 | 1013.9 |
| 20260505050532 | 14 | 181 | 8.0 | 27.4 | 0.00 | 0.00 | 0.00 | 54 | 1013.9 |